White Plains, CT

6:46 AM EDT on June 21, 2018 (GMT -0400)
Westchester County

Weather History for KHPN - June, 2018

Change the Weather History Date:

Thursday, June 14, 2018

  Actual Average Record
Temperature  
Mean Temperature 74 °F -  
Max Temperature 82 °F 73 °F 96 °F (1988)
Min Temperature 64 °F 56 °F 46 °F (1979)
Cooling Degree Days 9    
Growing Degree Days 24 (Base 50)    
Moisture  
Dew Point 51 °F    
Average Humidity 48    
Maximum Humidity 87    
Minimum Humidity 28    
Precipitation  
Precipitation 0.00 in - - ()
Sea Level Pressure  
Sea Level Pressure 29.76 in    
Wind  
Wind Speed 12 mph (WNW)    
Max Wind Speed 21 mph    
Max Gust Speed 29 mph    
Visibility 10 miles    
Events Rain    
Averages and records for this station are not official NWS values.
T = Trace of Precipitation, MM = Missing Value Source: NWS Daily Summary

Daily Weather History Graph

Daily Weather History Graph

Search for Another Location

Airport or City:

Astronomy

Jun. 14, 2018 Rise Set
Actual Time 5:21 AM EDT 8:28 PM EDT
Civil Twilight 4:48 AM EDT 9:02 PM EDT
Nautical Twilight 4:05 AM EDT 9:45 PM EDT
Astronomical Twilight 3:14 AM EDT 10:36 PM EDT
Moon 6:17 AM EDT (6/14) 9:25 PM EDT (6/14)
Length of Visible Light 16h 13m
Length of Day
15h 06m
New Moon, 1% of the Moon is Illuminated
Jun 14
New Moon
Jun 20
First Quarter
Jun 28
Full
Jul 6
Last Quarter
Jul 12
New

Hourly Weather History & Observations

Time (EDT) Temp. Dew Point Humidity Pressure Visibility Wind Dir Wind Speed Gust Speed Precip Events Conditions
12:56 AM 73.0 °F 68.0 °F 84% 29.73 in 10.0 mi WSW 5.8 mph - 0.00 in Rain Light Rain
1:56 AM 72.0 °F 68.0 °F 87% 29.72 in 10.0 mi West 6.9 mph - 0.00 in Rain Light Rain
2:56 AM 71.1 °F 57.9 °F 63% 29.73 in 10.0 mi NW 11.5 mph - 0.00 in   Partly Cloudy
3:56 AM 69.1 °F 53.1 °F 57% 29.73 in 10.0 mi West 11.5 mph 19.6 mph N/A   Clear
4:56 AM 66.9 °F 53.1 °F 61% 29.74 in 10.0 mi West 10.4 mph - N/A   Clear
5:56 AM 66.0 °F 54.0 °F 65% 29.75 in 10.0 mi West 9.2 mph - N/A   Clear
6:56 AM 66.9 °F 52.0 °F 59% 29.77 in 10.0 mi West 9.2 mph - N/A   Clear
7:56 AM 68.0 °F 50.0 °F 52% 29.77 in 10.0 mi WNW 12.7 mph - N/A   Clear
8:56 AM 71.1 °F 48.9 °F 45% 29.77 in 10.0 mi WNW 17.3 mph 23.0 mph N/A   Clear
9:56 AM 73.0 °F 48.0 °F 41% 29.76 in 10.0 mi NW 18.4 mph 25.3 mph N/A   Clear
10:56 AM 75.0 °F 50.0 °F 41% 29.75 in 10.0 mi NW 16.1 mph 24.2 mph N/A   Partly Cloudy
11:56 AM 77.0 °F 48.0 °F 36% 29.74 in 10.0 mi WNW 17.3 mph 23.0 mph N/A   Partly Cloudy
12:56 PM 79.0 °F 48.0 °F 34% 29.73 in 10.0 mi WNW 16.1 mph 25.3 mph N/A   Partly Cloudy
1:56 PM 80.1 °F 46.0 °F 30% 29.73 in 10.0 mi WNW 19.6 mph 25.3 mph N/A   Partly Cloudy
2:56 PM 81.0 °F 46.0 °F 29% 29.72 in 10.0 mi NW 18.4 mph 28.8 mph N/A   Partly Cloudy
3:56 PM 82.0 °F 46.0 °F 28% 29.73 in 10.0 mi NW 20.7 mph 28.8 mph N/A   Scattered Clouds
4:56 PM 81.0 °F 48.0 °F 31% 29.74 in 10.0 mi NW 16.1 mph 25.3 mph N/A   Scattered Clouds
5:56 PM 80.1 °F 48.9 °F 34% 29.74 in 10.0 mi NW 13.8 mph 20.7 mph N/A   Scattered Clouds
6:56 PM 78.1 °F 48.0 °F 35% 29.75 in 10.0 mi NW 13.8 mph - N/A   Partly Cloudy
7:56 PM 75.9 °F 46.9 °F 36% 29.78 in 10.0 mi NW 11.5 mph - N/A   Partly Cloudy
8:56 PM 72.0 °F 46.9 °F 41% 29.81 in 10.0 mi North 10.4 mph - N/A   Partly Cloudy
9:56 PM 69.1 °F 51.1 °F 53% 29.86 in 10.0 mi NNW 13.8 mph - N/A   Partly Cloudy
10:56 PM 68.0 °F 46.9 °F 47% 29.86 in 10.0 mi NW 15.0 mph - N/A   Clear
11:56 PM 64.0 °F 48.0 °F 56% 29.86 in 10.0 mi WNW 8.1 mph - N/A   Clear